Time,TemperatureF,DewpointF,PressureIn,WindDirection,WindDirectionDegrees,WindSpeedMPH,WindSpeedGustMPH,Humidity,HourlyPrecipIn,Conditions,Clouds,dailyrainin,SoftwareType,DateUTC
2013-05-21 00:00:00,78.0,-99.9,29.81,South,177,19.0,23.0,-999,-99.99,,,-99.99,,2013-05-21 05:00:00,
2013-05-21 00:32:00,78.0,-99.9,29.81,South,177,19.0,23.0,-999,-99.99,,,-99.99,,2013-05-21 05:32:00,
2013-05-21 00:42:00,78.0,-99.9,29.81,South,177,19.0,23.0,-999,-99.99,,,-99.99,,2013-05-21 05:42:00,
2013-05-21 00:52:00,78.0,-99.9,29.81,South,177,19.0,23.0,-999,-99.99,,,-99.99,,2013-05-21 05:52:00,
2013-05-21 01:00:00,78.0,-99.9,29.81,SSE,163,15.0,18.0,-999,-99.99,,,-99.99,,2013-05-21 06:00:00,
2013-05-21 01:32:00,78.0,-99.9,29.81,SSE,163,15.0,18.0,-999,-99.99,,,-99.99,,2013-05-21 06:32:00,
2013-05-21 01:42:00,78.0,-99.9,29.81,SSE,163,15.0,18.0,-999,-99.99,,,-99.99,,2013-05-21 06:42:00,
2013-05-21 01:52:00,78.0,-99.9,29.81,SSE,163,15.0,18.0,-999,-99.99,,,-99.99,,2013-05-21 06:52:00,
2013-05-21 02:00:00,78.0,-99.9,29.81,SSE,156,12.0,14.0,-999,-99.99,,,-99.99,,2013-05-21 07:00:00,
2013-05-21 02:32:00,78.0,-99.9,29.81,SSE,156,12.0,14.0,-999,-99.99,,,-99.99,,2013-05-21 07:32:00,
2013-05-21 02:42:00,78.0,-99.9,29.81,SSE,156,12.0,14.0,-999,-99.99,,,-99.99,,2013-05-21 07:42:00,
2013-05-21 02:52:00,78.0,-99.9,29.81,SSE,156,12.0,14.0,-999,-99.99,,,-99.99,,2013-05-21 07:52:00,
2013-05-21 03:00:00,78.0,-99.9,29.78,SSE,156,15.0,17.0,-999,-99.99,,,-99.99,,2013-05-21 08:00:00,
2013-05-21 03:31:00,78.0,-99.9,29.78,SSE,156,15.0,17.0,-999,-99.99,,,-99.99,,2013-05-21 08:31:00,
2013-05-21 03:42:00,78.0,-99.9,29.78,SSE,156,15.0,17.0,-999,-99.99,,,-99.99,,2013-05-21 08:42:00,
2013-05-21 03:52:00,78.0,-99.9,29.78,SSE,156,15.0,17.0,-999,-99.99,,,-99.99,,2013-05-21 08:52:00,
2013-05-21 04:00:00,78.0,-99.9,29.76,SSE,149,20.0,23.0,-999,-99.99,,,-99.99,,2013-05-21 09:00:00,
2013-05-21 04:21:00,78.0,-99.9,29.76,SSE,149,20.0,23.0,-999,-99.99,,,-99.99,,2013-05-21 09:21:00,
2013-05-21 04:33:00,78.0,-99.9,29.76,SSE,149,20.0,23.0,-999,-99.99,,,-99.99,,2013-05-21 09:33:00,
2013-05-21 04:42:00,78.0,-99.9,29.76,SSE,149,20.0,23.0,-999,-99.99,,,-99.99,,2013-05-21 09:42:00,
2013-05-21 04:53:00,78.0,-99.9,29.76,SSE,149,20.0,23.0,-999,-99.99,,,-99.99,,2013-05-21 09:53:00,
2013-05-21 05:00:00,77.0,-99.9,29.76,SE,139,20.0,24.0,-999,-99.99,,,-99.99,,2013-05-21 10:00:00,
2013-05-21 05:33:00,77.0,-99.9,29.76,SE,139,20.0,24.0,-999,-99.99,,,-99.99,,2013-05-21 10:33:00,
2013-05-21 05:42:00,77.0,-99.9,29.76,SE,139,20.0,24.0,-999,-99.99,,,-99.99,,2013-05-21 10:42:00,
2013-05-21 05:53:00,77.0,-99.9,29.76,SE,139,20.0,24.0,-999,-99.99,,,-99.99,,2013-05-21 10:53:00,
2013-05-21 06:00:00,77.0,-99.9,29.79,SSE,154,19.0,22.0,-999,-99.99,,,-99.99,,2013-05-21 11:00:00,
2013-05-21 06:32:00,77.0,-99.9,29.79,SSE,154,19.0,22.0,-999,-99.99,,,-99.99,,2013-05-21 11:32:00,
2013-05-21 06:42:00,77.0,-99.9,29.79,SSE,154,19.0,22.0,-999,-99.99,,,-99.99,,2013-05-21 11:42:00,
2013-05-21 06:52:00,77.0,-99.9,29.79,SSE,154,19.0,22.0,-999,-99.99,,,-99.99,,2013-05-21 11:52:00,
2013-05-21 07:00:00,77.0,-99.9,29.81,SE,141,20.0,22.0,-999,-99.99,,,-99.99,,2013-05-21 12:00:00,
2013-05-21 07:32:00,77.0,-99.9,29.81,SE,141,20.0,22.0,-999,-99.99,,,-99.99,,2013-05-21 12:32:00,
2013-05-21 07:42:00,77.0,-99.9,29.81,SE,141,20.0,22.0,-999,-99.99,,,-99.99,,2013-05-21 12:42:00,
2013-05-21 07:52:00,77.0,-99.9,29.81,SE,141,20.0,22.0,-999,-99.99,,,-99.99,,2013-05-21 12:52:00,
2013-05-21 08:00:00,78.0,-99.9,29.81,SSE,152,21.0,25.0,-999,-99.99,,,-99.99,,2013-05-21 13:00:00,
2013-05-21 08:32:00,78.0,-99.9,29.81,SSE,152,21.0,25.0,-999,-99.99,,,-99.99,,2013-05-21 13:32:00,
2013-05-21 08:42:00,78.0,-99.9,29.81,SSE,152,21.0,25.0,-999,-99.99,,,-99.99,,2013-05-21 13:42:00,
2013-05-21 08:52:00,78.0,-99.9,29.81,SSE,152,21.0,25.0,-999,-99.99,,,-99.99,,2013-05-21 13:52:00,
2013-05-21 09:00:00,78.0,-99.9,29.81,SSE,152,22.0,25.0,-999,-99.99,,,-99.99,,2013-05-21 14:00:00,
2013-05-21 09:21:00,78.0,-99.9,29.81,SSE,152,22.0,25.0,-999,-99.99,,,-99.99,,2013-05-21 14:21:00,
2013-05-21 09:32:00,78.0,-99.9,29.81,SSE,152,22.0,25.0,-999,-99.99,,,-99.99,,2013-05-21 14:32:00,
2013-05-21 09:42:00,78.0,-99.9,29.81,SSE,152,22.0,25.0,-999,-99.99,,,-99.99,,2013-05-21 14:42:00,
2013-05-21 09:52:00,78.0,-99.9,29.81,SSE,152,22.0,25.0,-999,-99.99,,,-99.99,,2013-05-21 14:52:00,
2013-05-21 10:00:00,78.0,-99.9,29.82,SSE,158,21.0,25.0,-999,-99.99,,,-99.99,,2013-05-21 15:00:00,
2013-05-21 10:33:00,78.0,-99.9,29.82,SSE,158,21.0,25.0,-999,-99.99,,,-99.99,,2013-05-21 15:33:00,
2013-05-21 10:42:00,78.0,-99.9,29.82,SSE,158,21.0,25.0,-999,-99.99,,,-99.99,,2013-05-21 15:42:00,
2013-05-21 10:53:00,78.0,-99.9,29.82,SSE,158,21.0,25.0,-999,-99.99,,,-99.99,,2013-05-21 15:53:00,
2013-05-21 11:00:00,78.0,-99.9,29.83,SSE,162,17.0,20.0,-999,-99.99,,,-99.99,,2013-05-21 16:00:00,
2013-05-21 11:32:00,78.0,-99.9,29.83,SSE,162,17.0,20.0,-999,-99.99,,,-99.99,,2013-05-21 16:32:00,
2013-05-21 11:42:00,78.0,-99.9,29.83,SSE,162,17.0,20.0,-999,-99.99,,,-99.99,,2013-05-21 16:42:00,
2013-05-21 11:53:00,78.0,-99.9,29.83,SSE,162,17.0,20.0,-999,-99.99,,,-99.99,,2013-05-21 16:53:00,
2013-05-21 12:00:00,78.0,-99.9,29.82,SSE,159,15.0,19.0,-999,-99.99,,,-99.99,,2013-05-21 17:00:00,
2013-05-21 12:33:00,78.0,-99.9,29.82,SSE,159,15.0,19.0,-999,-99.99,,,-99.99,,2013-05-21 17:33:00,
2013-05-21 12:44:00,78.0,-99.9,29.82,SSE,159,15.0,19.0,-999,-99.99,,,-99.99,,2013-05-21 17:44:00,
2013-05-21 12:53:00,78.0,-99.9,29.82,SSE,159,15.0,19.0,-999,-99.99,,,-99.99,,2013-05-21 17:53:00,
2013-05-21 13:00:00,78.0,-99.9,29.80,SSE,158,15.0,20.0,-999,-99.99,,,-99.99,,2013-05-21 18:00:00,
2013-05-21 13:32:00,78.0,-99.9,29.80,SSE,158,15.0,20.0,-999,-99.99,,,-99.99,,2013-05-21 18:32:00,
2013-05-21 13:42:00,78.0,-99.9,29.80,SSE,158,15.0,20.0,-999,-99.99,,,-99.99,,2013-05-21 18:42:00,
2013-05-21 13:52:00,78.0,-99.9,29.80,SSE,158,15.0,20.0,-999,-99.99,,,-99.99,,2013-05-21 18:52:00,
2013-05-21 14:00:00,78.0,-99.9,29.79,SSE,151,16.0,20.0,-999,-99.99,,,-99.99,,2013-05-21 19:00:00,
2013-05-21 14:32:00,78.0,-99.9,29.79,SSE,151,16.0,20.0,-999,-99.99,,,-99.99,,2013-05-21 19:32:00,
2013-05-21 14:42:00,78.0,-99.9,29.79,SSE,151,16.0,20.0,-999,-99.99,,,-99.99,,2013-05-21 19:42:00,
2013-05-21 14:52:00,78.0,-99.9,29.79,SSE,151,16.0,20.0,-999,-99.99,,,-99.99,,2013-05-21 19:52:00,
2013-05-21 15:00:00,79.0,-99.9,29.78,SSE,160,16.0,21.0,-999,-99.99,,,-99.99,,2013-05-21 20:00:00,
2013-05-21 15:33:00,79.0,-99.9,29.78,SSE,160,16.0,21.0,-999,-99.99,,,-99.99,,2013-05-21 20:33:00,
2013-05-21 15:42:00,79.0,-99.9,29.78,SSE,160,16.0,21.0,-999,-99.99,,,-99.99,,2013-05-21 20:42:00,
2013-05-21 15:52:00,79.0,-99.9,29.78,SSE,160,16.0,21.0,-999,-99.99,,,-99.99,,2013-05-21 20:52:00,
2013-05-21 16:00:00,78.0,-99.9,29.77,SSE,150,11.0,13.0,-999,-99.99,,,-99.99,,2013-05-21 21:00:00,
2013-05-21 16:33:00,78.0,-99.9,29.77,SSE,150,11.0,13.0,-999,-99.99,,,-99.99,,2013-05-21 21:33:00,
2013-05-21 16:44:00,78.0,-99.9,29.77,SSE,150,11.0,13.0,-999,-99.99,,,-99.99,,2013-05-21 21:44:00,
2013-05-21 16:54:00,78.0,-99.9,29.77,SSE,150,11.0,13.0,-999,-99.99,,,-99.99,,2013-05-21 21:54:00,
2013-05-21 17:00:00,79.0,-99.9,29.75,SSE,155,9.0,12.0,-999,-99.99,,,-99.99,,2013-05-21 22:00:00,
2013-05-21 17:34:00,79.0,-99.9,29.75,SSE,155,9.0,12.0,-999,-99.99,,,-99.99,,2013-05-21 22:34:00,
2013-05-21 17:42:00,79.0,-99.9,29.75,SSE,155,9.0,12.0,-999,-99.99,,,-99.99,,2013-05-21 22:42:00,
2013-05-21 17:53:00,79.0,-99.9,29.75,SSE,155,9.0,12.0,-999,-99.99,,,-99.99,,2013-05-21 22:53:00,
2013-05-21 18:00:00,78.0,-99.9,29.73,SE,143,9.0,11.0,-999,-99.99,,,-99.99,,2013-05-21 23:00:00,
2013-05-21 18:32:00,78.0,-99.9,29.73,SE,143,9.0,11.0,-999,-99.99,,,-99.99,,2013-05-21 23:32:00,
2013-05-21 18:42:00,78.0,-99.9,29.73,SE,143,9.0,11.0,-999,-99.99,,,-99.99,,2013-05-21 23:42:00,
2013-05-21 18:52:00,78.0,-99.9,29.73,SE,143,9.0,11.0,-999,-99.99,,,-99.99,,2013-05-21 23:52:00,
2013-05-21 19:00:00,79.0,-99.9,29.72,SSE,158,12.0,15.0,-999,-99.99,,,-99.99,,2013-05-22 00:00:00,
2013-05-21 19:32:00,79.0,-99.9,29.72,SSE,158,12.0,15.0,-999,-99.99,,,-99.99,,2013-05-22 00:32:00,
2013-05-21 19:42:00,79.0,-99.9,29.72,SSE,158,12.0,15.0,-999,-99.99,,,-99.99,,2013-05-22 00:42:00,
2013-05-21 19:52:00,79.0,-99.9,29.72,SSE,158,12.0,15.0,-999,-99.99,,,-99.99,,2013-05-22 00:52:00,
2013-05-21 20:00:00,78.0,-99.9,29.73,SSE,161,15.0,16.0,-999,-99.99,,,-99.99,,2013-05-22 01:00:00,
2013-05-21 20:32:00,78.0,-99.9,29.73,SSE,161,15.0,16.0,-999,-99.99,,,-99.99,,2013-05-22 01:32:00,
2013-05-21 20:42:00,78.0,-99.9,29.73,SSE,161,15.0,16.0,-999,-99.99,,,-99.99,,2013-05-22 01:42:00,
2013-05-21 20:52:00,78.0,-99.9,29.73,SSE,161,15.0,16.0,-999,-99.99,,,-99.99,,2013-05-22 01:52:00,
2013-05-21 21:00:00,78.0,-99.9,29.76,South,172,9.0,11.0,-999,-99.99,,,-99.99,,2013-05-22 02:00:00,
2013-05-21 21:32:00,78.0,-99.9,29.76,South,172,9.0,11.0,-999,-99.99,,,-99.99,,2013-05-22 02:32:00,
2013-05-21 21:42:00,78.0,-99.9,29.76,South,172,9.0,11.0,-999,-99.99,,,-99.99,,2013-05-22 02:42:00,
2013-05-21 21:52:00,78.0,-99.9,29.76,South,172,9.0,11.0,-999,-99.99,,,-99.99,,2013-05-22 02:52:00,
2013-05-21 22:00:00,78.0,-99.9,29.78,SSE,158,11.0,14.0,-999,-99.99,,,-99.99,,2013-05-22 03:00:00,
2013-05-21 22:33:00,78.0,-99.9,29.78,SSE,158,11.0,14.0,-999,-99.99,,,-99.99,,2013-05-22 03:33:00,
2013-05-21 22:43:00,78.0,-99.9,29.78,SSE,158,11.0,14.0,-999,-99.99,,,-99.99,,2013-05-22 03:43:00,
2013-05-21 22:53:00,78.0,-99.9,29.78,SSE,158,11.0,14.0,-999,-99.99,,,-99.99,,2013-05-22 03:53:00,
2013-05-21 23:00:00,78.0,-99.9,29.79,SSE,149,12.0,15.0,-999,-99.99,,,-99.99,,2013-05-22 04:00:00,
2013-05-21 23:33:00,78.0,-99.9,29.79,SSE,149,12.0,15.0,-999,-99.99,,,-99.99,,2013-05-22 04:33:00,
2013-05-21 23:43:00,78.0,-99.9,29.79,SSE,149,12.0,15.0,-999,-99.99,,,-99.99,,2013-05-22 04:43:00,
2013-05-21 23:53:00,78.0,-99.9,29.79,SSE,149,12.0,15.0,-999,-99.99,,,-99.99,,2013-05-22 04:53:00,